This is the latest recevied weather packets stored in our database for station/object SV9TNF-55. If no packets are shown the sender has not sent any weather packets the latest 10 day(s).
| Time | Temp. | Humidity | Pressure | Rain* | Wind** | Luminosity | Snow |
|---|---|---|---|---|---|---|---|
| 1788091016 | 24.44° C | 56% | 1015.5 hPa | 0 mm | 2.68 m/s, 337° | - | - |
| 1788090415 | 24.44° C | 56% | 1015.7 hPa | 0 mm | 3.13 m/s, 315° | - | - |
| 1788089815 | 24.44° C | 56% | 1015.6 hPa | 0 mm | 4.02 m/s, 315° | - | - |
| 1788089215 | 25° C | 54% | 1015.5 hPa | 0 mm | 3.58 m/s, 315° | - | - |
| 1788088615 | 25° C | 51% | 1015.6 hPa | 0 mm | 3.13 m/s, 337° | - | - |
| 1788088015 | 24.44° C | 55% | 1015.6 hPa | 0 mm | 1.79 m/s, 360° | - | - |
| 1788087415 | 23.89° C | 54% | 1015.7 hPa | 0 mm | 2.68 m/s, 337° | - | - |
| 1788086815 | 24.44° C | 53% | 1015.7 hPa | 0 mm | 1.79 m/s, 360° | - | - |
| 1788086214 | 23.89° C | 52% | 1015.8 hPa | 0 mm | 1.34 m/s, 45° | - | - |
| 1788085615 | 23.33° C | 51% | 1015.9 hPa | 0 mm | 2.24 m/s, 337° | - | - |
| 1788085014 | 24.44° C | 51% | 1015.9 hPa | 0 mm | 3.13 m/s, 292° | - | - |
| 1788084420 | 23.89° C | 51% | 1016 hPa | 0 mm | 2.24 m/s, 337° | - | - |
| 1788083815 | 23.89° C | 50% | 1016 hPa | 0 mm | 1.79 m/s, 337° | - | - |
| 1788083214 | 23.89° C | 48% | 1016.1 hPa | 0 mm | 1.79 m/s, 337° | - | - |
| 1788082614 | 23.89° C | 50% | 1016 hPa | 0 mm | 2.24 m/s, 337° | - | - |
| 1788082014 | 23.89° C | 51% | 1016.1 hPa | 0 mm | 3.13 m/s, 360° | - | - |
| 1788081414 | 23.33° C | 52% | 1016.2 hPa | 0 mm | 3.13 m/s, 360° | - | - |
| 1788080816 | 23.33° C | 52% | 1016.2 hPa | 0 mm | 3.13 m/s, 360° | - | - |
| 1788080216 | 23.89° C | 50% | 1016.2 hPa | 0 mm | 2.68 m/s, 360° | - | - |
| 1788079614 | 24.44° C | 45% | 1016.3 hPa | 0 mm | 1.79 m/s, 337° | - | - |
| 1788079014 | 24.44° C | 42% | 1016.3 hPa | 0 mm | 1.34 m/s, 45° | - | - |
| 1788078414 | 23.89° C | 43% | 1016.5 hPa | 0 mm | 2.68 m/s, 360° | - | - |
| 1788077814 | 24.44° C | 41% | 1016.4 hPa | 0 mm | 2.24 m/s, 22° | - | - |
| 1788077213 | 24.44° C | 36% | 1016.4 hPa | 0 mm | 2.24 m/s, 337° | - | - |
| 1788076613 | 23.89° C | 35% | 1016.3 hPa | 0 mm | 1.79 m/s, 22° | - | - |
* Rain latest hour (hover to see other rain measurements)
** Current wind speed in m/s (hover to see current wind gust speed)